Flag for Germany Weather past 2 weeks in Güstrow, Mecklenburg-Western Pomerania, Germany

Now
66 °F

Passing clouds.


Feels Like: 66 °F
Forecast: 61 / 85 °F
Wind: 8 mph from East

Location: Laage

Current Time: Jul 26, 2014 at 3:47:11 AM

Latest Report: Jul 26, 2014 at 2:20 AM


Visibility: N/A

Pressure: 29.98 "Hg

Humidity: 83%

Dew point: 61 °F

Location of GüstrowLocation

Historic Weather in Güstrow — Graph

°F

Güstrow temperature yesterday

Maximum temperature yesterday: 84 °F (at 1:20 PM)
Minimum temperature yesterday: 64 °F (at 2:20 AM)
Average temperature yesterday: 72 °F

Past Weeks' High & Low Weather Summary

 TemperatureHumidityPressure
High84 °F (Jul 19, 2:20 PM)100% (Jul 12, 10:20 PM)30.18 "Hg (Jul 12, 10:20 PM)
Low55 °F (Jul 12, 10:20 PM)35% (Jul 19, 3:20 PM)29.68 "Hg (Jul 13, 5:20 PM)
Average68 °F72%30.00 "Hg
* Reported Jul 11 2:20 AM — Jul 26 2:20 AM, Güstrow, Weather by CustomWeather, © 2014

Note: Actual official high and low records may vary slightly from our data, if they occured in-between our weather recording intervals... More about our weather records

Advertising

Güstrow weather history for previous 24 hours

 ConditionsComfort  
Time TempWeatherWind HumidityBarometerVisibility
2:20 AM
Jul 26
66 °FPassing clouds.8 mph83%29.98 "HgN/A
1:20 AM66 °FPassing clouds.7 mph83%29.98 "HgN/A
12:20 AM66 °FPassing clouds.7 mph83%29.98 "HgN/A
11:20 PM
Jul 25
66 °FPassing clouds.7 mph83%29.98 "HgN/A
10:20 PM70 °FScattered clouds.10 mph69%29.98 "HgN/A
9:20 PM72 °FPartly sunny.13 mph65%29.98 "HgN/A
8:20 PM73 °FPartly sunny.13 mph65%29.95 "HgN/A
7:20 PM75 °FPartly sunny.10 mph61%29.95 "HgN/A
6:20 PM77 °FBroken clouds.9 mph51%29.95 "HgN/A
5:20 PM77 °FPartly sunny.12 mph54%29.98 "HgN/A
4:20 PM75 °FScattered showers. Partly sunny.9 mph57%29.98 "HgN/A
3:20 PM81 °FBroken clouds.9 mph42%29.98 "HgN/A
2:20 PM82 °FBroken clouds.17 mph40%30.01 "HgN/A
1:20 PM84 °FPartly sunny.21 mph35%29.98 "HgN/A
12:20 PM81 °FPartly sunny.16 mph42%30.01 "HgN/A
11:20 AM79 °FBroken clouds.13 mph48%30.01 "HgN/A
10:20 AM77 °FPartly sunny.10 mph57%30.01 "HgN/A
9:20 AM73 °FPartly sunny.10 mph65%30.01 "HgN/A
8:20 AM70 °FPartly sunny.10 mph78%30.01 "HgN/A
7:20 AM68 °FPartly sunny.10 mph83%30.01 "HgN/A
6:20 AM64 °FPartly sunny.8 mph88%30.01 "HgN/A
5:20 AM64 °FPassing clouds.7 mph88%30.01 "HgN/A
4:20 AM64 °FPassing clouds.6 mph88%30.01 "HgN/A
3:20 AM64 °FPassing clouds.9 mph88%30.01 "HgN/A
Weather by CustomWeather, © 2014

See weather overviewHow to use our weather pages